Regional Weather Roundup
Issued by NWS Charleston, WV

Home | Current Version | Previous Version | Text Only | Print | Product List | Glossary Off
Versions: 1 2 3 4 5 6 7 8 9 10 11 12 13 14 15 16 17 18 19 20 21 22 23 24 25 26 27 28 29 30 31 32 33 34 35 36 37 38 39 40 41 42 43 44 45 46 47 48 49 50

000
ASUS41 KRLX 021610
RWRRLX
West Virginia Regional Weather Roundup
National Weather Service Charleston WV
1100 AM EST FRI DEC 02 2016

Note: "fair" indicates few or no clouds below 12,000 feet with no
significant weather and/or obstructions to visibility.

WVZ003-021700-
Northern Panhandle of West Virginia

CITY           SKY/WX    TMP DP  RH WIND       PRES   REMARKS
WHEELING       MIX PCPN  35  30  82 W13       30.10R
$$

WVZ009-021700-
Northwest West Virginia

CITY           SKY/WX    TMP DP  RH WIND       PRES   REMARKS
PARKERSBURG    CLOUDY    38  27  64 W9        30.19R
$$

WVZ006-021700-
Western West Virginia

CITY           SKY/WX    TMP DP  RH WIND       PRES   REMARKS
HUNTINGTON     CLOUDY    39  29  67 W8        30.20R
$$

WVZ015-021700-
West Central West Virginia

CITY           SKY/WX    TMP DP  RH WIND       PRES   REMARKS
CHARLESTON     CLOUDY    38  29  70 W6        30.19R
$$

WVZ022-031-021700-
North Central West Virginia

CITY           SKY/WX    TMP DP  RH WIND       PRES   REMARKS
CLARKSBURG     CLOUDY    37  28  70 W10       30.12S
MORGANTOWN     CLOUDY    39  26  59 W8        30.11R
$$

WVZ025-035-042-045-021700-
Southern West Virginia

CITY           SKY/WX    TMP DP  RH WIND       PRES   REMARKS
BECKLEY        PTSUNNY   36  25  64 NW15      30.13R
LOGAN          CLOUDY    39  30  70 CALM      30.18S
BLUEFIELD      PTSUNNY   33  25  72 W17G25    30.13S
LEWISBURG      CLOUDY    37  26  63 NW8G18    30.11S
$$

WVZ047-021700-
Northern Mountains of West Virginia

CITY           SKY/WX    TMP DP  RH WIND       PRES   REMARKS
ELKINS         CLOUDY    35  26  69 SW9G20    30.10S
$$

WVZ052-021700-
Eastern Panhandle of West Virginia

CITY           SKY/WX    TMP DP  RH WIND       PRES   REMARKS
MARTINSBURG    CLOUDY    44  28  53 W12       30.07S
PETERSBURG     CLOUDY    43  31  62 W6        30.10S
$$




USA.gov is the U.S. government's official web portal to all federal, state and local government web resources and services.